Lapse_Rate
7.2 7.1 7.0 6.8 6.3 5.9 6.1 6.2 6.2 6.4 6.6 6.6 6.6 6.5 6.4 6.3 6.0 6.0 5.9 6.0 5.8 5.8 5.8 5.8 5.9 5.9 5.8 5.7 5.6 5.3 5.3 5.4 5.5 5.6 5.6 5.6 5.7 5.4 5.4 5.4 5.4 5.4 5.4
7.7 7.5 7.3 7.0 6.8 6.5 6.1 6.3 6.1 6.3 6.5 6.6 6.6 6.6 6.5 6.3 6.1 6.0 5.9 5.9 6.0 6.1 6.0 6.0 6.0 6.1 5.9 6.0 6.0 5.8 5.6 5.5 5.7 6.0 5.9 5.8 5.6 5.6 5.4 5.4 5.5 5.5 5.5
8.0 7.9 7.7 7.4 7.0 6.7 6.5 6.6 6.3 6.2 6.2 6.4 6.4 6.4 6.3 6.3 6.1 6.1 5.9 5.9 6.2 6.3 6.4 6.4 6.4 6.4 6.2 6.0 5.9 6.0 5.8 5.6 5.7 5.9 5.8 6.0 5.9 5.6 5.4 5.4 5.6 5.6 5.5
8.1 8.0 7.8 7.7 7.6 7.3 6.9 6.5 6.5 6.5 6.6 6.6 6.4 6.3 6.1 6.0 5.8 5.5 5.5 5.7 6.3 6.5 6.5 6.5 6.4 6.4 6.3 6.2 6.4 6.5 6.3 6.2 6.0 6.1 6.0 5.9 5.9 5.8 5.9 5.4 5.6 5.7 5.6
8.3 8.3 8.3 8.1 7.7 7.6 7.5 7.5 7.2 6.8 6.7 6.9 6.8 6.6 6.4 6.3 6.3 6.1 5.9 6.0 6.1 5.9 6.0 6.1 6.3 6.5 6.6 6.3 6.0 5.8 5.8 5.9 5.7 5.5 6.0 6.2 6.1 5.9 6.1 6.1 5.6 5.4 5.7
8.0 7.9 8.1 8.0 8.2 7.8 7.7 7.7 7.4 7.3 7.2 7.2 7.1 7.2 7.0 6.8 6.5 6.4 6.5 6.5 6.4 6.3 6.1 6.1 6.0 6.3 6.0 6.0 6.0 5.9 5.7 5.8 5.9 5.7 5.4 5.7 6.0 6.1 6.1 6.3 6.1 5.9 5.5
7.8 7.6 7.7 7.9 7.9 7.8 7.8 7.9 7.7 7.8 7.7 7.7 7.6 7.6 7.5 7.4 7.1 7.0 6.8 6.8 6.5 6.3 6.2 6.1 6.0 5.8 5.7 6.0 6.0 6.0 5.9 5.8 5.9 5.8 5.7 5.6 5.7 5.8 6.1 6.2 6.2 6.2 5.8
7.8 7.6 7.4 7.3 7.3 7.4 7.3 7.7 8.1 8.0 7.6 7.9 7.9 7.8 7.7 7.6 7.7 7.6 7.3 7.1 6.9 6.6 6.5 6.2 6.1 6.0 6.0 5.9 5.7 5.8 5.6 5.3 5.2 5.4 5.7 5.4 5.5 5.8 5.8 6.0 6.0 6.0 6.1
8.0 7.8 7.5 7.3 7.2 7.1 7.2 7.7 7.6 7.9 7.9 7.6 7.7 8.0 7.7 7.3 7.8 7.5 7.7 7.6 7.5 7.3 6.9 6.5 6.4 6.4 6.3 6.0 5.9 5.9 5.7 5.3 5.2 5.0 5.0 5.5 5.5 5.7 5.7 6.0 5.7 5.9 6.2
8.2 8.2 8.0 7.8 7.7 7.5 7.7 7.7 7.2 7.9 7.8 7.8 7.7 7.6 7.3 7.9 7.9 8.2 7.6 7.7 7.8 7.9 7.5 7.1 6.9 6.9 6.7 6.6 6.3 6.0 5.5 5.0 5.0 4.9 5.0 5.5 5.6 5.9 5.8 5.9 5.7 5.8 6.1
8.3 8.4 8.2 8.0 7.9 7.8 7.6 7.7 7.7 7.6 7.2 7.2 7.6 7.0 6.0 7.5 8.1 8.1 7.9 7.6 7.7 8.0 7.7 7.6 7.3 6.9 6.8 6.5 6.3 6.0 5.3 4.7 4.5 4.3 4.9 5.6 5.6 6.1 6.3 6.3 6.2 6.2 5.9
8.4 8.5 8.4 8.2 7.9 7.9 7.7 7.4 7.2 7.1 7.1 6.9 7.0 6.5 6.1 7.5 7.8 7.3 7.6 7.7 7.5 7.7 7.8 7.8 7.7 7.4 7.1 6.7 6.3 6.1 5.7 5.1 4.9 5.0 5.6 5.2 5.7 6.1 6.4 6.4 6.2 6.2 6.1
8.4 8.5 8.5 8.3 8.1 7.8 7.5 7.3 7.1 7.0 7.0 7.0 7.1 7.2 7.4 7.5 7.4 7.6 7.6 7.6 7.6 7.8 7.6 7.7 7.8 7.5 7.4 6.9 6.7 6.3 6.1 5.7 5.5 5.7 6.0 5.7 6.1 6.5 6.6 6.2 6.2 6.1 6.1
8.3 8.4 8.6 8.3 8.1 7.9 7.7 7.5 7.3 7.1 7.2 7.3 7.2 7.1 7.2 7.4 7.6 7.5 7.5 7.5 7.6 7.9 7.7 7.7 7.9 7.7 7.7 7.3 7.1 7.0 6.4 6.3 6.2 6.0 6.1 6.5 6.4 6.5 6.6 6.3 6.2 6.1 6.2
8.4 8.3 8.4 8.3 8.2 8.1 7.9 7.6 7.6 7.5 7.4 7.3 7.2 7.1 7.2 7.4 7.5 7.6 7.6 7.8 7.8 7.8 7.8 7.8 7.9 7.8 7.9 7.6 7.3 7.4 7.1 6.8 6.5 6.4 6.6 6.7 6.7 6.9 6.9 6.8 6.4 6.3 6.4
8.5 8.3 8.4 8.3 8.2 8.2 8.0 7.8 7.7 7.4 7.5 7.4 7.2 7.0 7.0 7.0 7.1 7.2 7.4 7.4 7.3 7.4 7.5 7.6 7.7 7.8 7.8 7.4 7.5 7.5 7.6 7.3 7.3 7.0 6.9 6.9 6.8 6.8 7.1 7.2 7.3 6.7 6.4
8.5 8.2 8.2 7.9 7.9 7.7 7.5 7.5 7.4 7.4 7.3 7.2 7.1 7.1 7.2 7.2 7.1 6.9 6.9 7.0 7.1 7.1 7.2 7.3 7.3 7.4 7.4 7.2 7.3 7.3 7.4 7.4 7.2 7.3 7.1 7.0 6.8 6.7 6.7 6.8 6.9 6.4 5.9
8.4 8.2 7.9 7.7 7.4 7.1 6.9 6.8 6.9 6.9 7.1 7.3 7.2 7.0 6.9 6.9 6.8 6.8 6.8 6.8 6.9 7.0 6.9 7.0 7.1 7.3 7.3 7.2 7.1 7.2 7.3 7.3 7.1 6.9 6.9 7.0 6.9 6.7 6.6 6.6 6.5 6.0 5.9
8.3 7.9 7.6 7.4 7.1 7.1 7.0 6.9 6.9 6.9 6.9 6.9 6.7 6.6 6.7 6.8 6.9 6.8 6.7 6.6 6.5 6.6 6.8 6.9 7.0 6.9 6.9 6.9 6.9 6.9 6.9 7.0 7.1 7.0 6.8 6.8 6.9 6.7 6.6 6.5 6.4 6.1 6.0
8.2 8.0 7.8 7.7 7.5 7.2 7.1 7.0 6.8 6.9 6.7 6.6 6.5 6.2 6.1 6.2 6.1 6.3 6.3 6.5 6.4 6.4 6.4 6.4 6.6 6.9 6.9 6.8 6.6 6.6 6.5 6.7 6.8 6.7 6.7 6.8 6.7 6.5 6.4 6.3 6.3 6.5 6.1
8.5 8.1 7.8 7.6 7.3 7.1 7.1 7.1 7.0 6.9 6.7 6.7 6.4 6.1 6.0 5.8 5.9 6.0 6.0 6.0 6.1 6.1 6.3 6.4 6.5 6.6 6.6 6.6 6.6 6.6 6.6 6.5 6.4 6.5 6.5 6.5 6.6 6.5 6.4 6.2 6.4 6.4 6.3
8.5 8.2 7.9 7.7 7.4 7.3 7.1 7.2 6.8 6.5 6.3 6.4 6.7 6.2 6.0 5.9 5.5 5.7 5.8 5.8 6.0 6.2 6.2 6.3 6.4 6.4 6.5 6.4 6.5 6.5 6.5 6.5 6.4 6.4 6.4 6.4 6.4 6.4 6.4 6.2 6.3 6.3 6.3
8.2 7.9 7.9 7.5 7.2 6.9 6.9 6.7 6.8 6.5 6.1 6.1 6.3 6.6 6.2 6.2 6.2 6.0 6.0 5.9 5.9 6.1 6.1 6.3 6.4 6.7 6.7 6.7 6.8 6.7 6.6 6.5 6.4 6.5 6.5 6.4 6.4 6.4 6.4 6.4 6.3 6.2 6.2
7.6 7.4 7.4 7.2 7.0 6.9 6.8 6.7 6.7 5.9 5.9 5.8 5.7 5.8 6.0 5.9 5.8 5.4 5.6 5.8 5.9 5.9 6.0 6.2 6.4 6.6 6.8 6.9 6.8 6.7 6.6 6.6 6.6 6.5 6.5 6.6 6.5 6.6 6.6 6.4 6.3 6.2 6.1
7.2 7.1 7.1 6.7 6.6 6.7 6.9 7.1 6.4 6.1 5.8 5.6 5.6 5.6 5.6 5.6 5.6 5.8 5.8 5.8 5.8 5.7 5.8 6.1 6.2 6.4 6.6 6.8 6.8 6.8 6.7 6.6 6.6 6.5 6.6 6.8 6.8 6.7 6.6 6.5 6.3 6.2 6.1
7.0 7.1 7.2 7.0 7.7 7.4 6.8 6.5 6.3 6.2 5.9 5.6 5.5 5.6 5.6 5.6 5.7 5.9 6.1 6.0 5.7 5.6 5.5 5.8 5.9 5.9 5.9 6.2 6.3 6.3 6.4 6.5 6.4 6.4 6.4 6.5 6.5 6.5 6.5 6.5 6.4 6.2 6.0
Wind_Speed
14 15 16 16 15 14 14 14 13 13 9 8 8 7 7 7 7 12 12 11 10 9 9 9 10 9 5 7 6 3 5 4 5 5 7 6 8 7 7 9 10 11 11
13 12 14 15 17 17 16 15 15 13 11 8 6 5 4 5 5 7 10 11 11 10 9 10 8 9 5 7 6 7 4 4 5 3 4 4 2 3 3 4 6 9 10
16 14 13 15 15 16 16 16 16 14 13 12 6 4 3 4 4 5 5 10 12 12 11 11 10 8 5 7 6 6 6 5 3 6 3 3 3 7 1 4 3 4 6
16 14 14 14 15 16 15 16 15 15 12 12 10 11 9 8 7 6 5 5 8 10 11 11 11 10 8 7 7 6 6 6 7 4 6 8 5 3 5 2 4 6 6
17 18 17 17 17 15 16 16 15 13 13 13 12 10 11 8 7 6 7 7 7 9 10 10 11 10 8 8 9 9 8 7 8 6 5 6 6 8 6 7 6 6 6
17 16 15 13 13 13 14 14 14 14 13 12 12 13 13 11 7 6 6 7 6 5 8 10 11 11 10 10 9 9 10 9 9 8 8 8 6 4 5 6 7 8 8
14 14 14 13 14 16 15 13 13 12 12 13 13 14 14 12 12 9 8 7 7 7 8 7 7 7 11 12 11 10 10 9 7 9 7 7 8 6 6 7 9 6 7
11 15 13 14 14 14 15 14 13 11 11 14 15 13 14 9 11 11 8 7 7 7 8 8 9 10 12 11 10 7 5 7 8 11 9 8 8 6 6 9 6 9 8
4 8 10 12 12 13 15 16 14 13 14 16 13 13 13 13 10 9 7 7 8 7 9 10 10 9 9 9 7 6 8 8 10 11 11 10 6 6 7 7 7 8 8
2 6 9 10 11 14 15 16 15 14 17 13 12 12 11 8 10 9 9 9 9 8 9 10 10 9 9 9 8 8 8 10 10 10 9 11 7 6 5 7 7 7 9
1 3 6 5 9 13 16 17 17 17 13 6 8 10 8 9 9 9 9 9 9 7 10 10 9 10 10 10 10 10 10 9 10 8 8 12 8 7 6 7 8 7 7
4 3 4 6 9 13 14 15 16 14 12 6 8 10 8 11 11 10 10 10 7 7 9 10 9 10 10 9 11 11 8 7 6 5 3 9 5 10 8 6 10 9 9
4 4 5 7 9 12 12 13 14 14 10 6 7 9 10 12 12 11 9 7 7 8 8 9 10 9 9 9 10 10 10 9 8 7 6 9 7 9 6 6 7 8 6
5 6 6 7 8 9 10 11 12 11 9 8 8 9 9 11 10 9 6 8 7 8 8 9 9 9 9 9 9 10 10 9 9 9 10 10 8 11 11 9 9 8 8
8 7 8 8 9 9 8 7 7 7 6 7 7 7 6 6 7 9 10 9 7 8 8 7 8 9 8 7 8 9 9 9 10 10 9 9 10 11 11 8 9 9 7
11 9 8 9 8 8 7 7 7 6 6 6 6 6 5 5 5 5 5 6 7 7 6 7 7 8 6 4 6 10 8 9 10 10 9 8 7 8 10 11 13 11 9
14 12 10 8 8 8 8 8 6 5 5 4 2 1 2 4 5 5 5 6 6 5 5 5 6 8 8 6 8 9 10 9 10 10 9 7 5 4 6 7 10 11 13
13 11 8 6 7 9 7 7 8 8 8 6 5 5 5 5 4 5 5 5 4 4 4 5 5 6 6 6 9 9 9 9 11 10 10 10 8 6 4 7 7 8 9
12 9 8 8 7 8 9 9 8 8 9 7 6 5 4 4 3 3 3 3 4 5 5 5 6 6 7 5 9 7 8 9 11 9 10 11 10 9 8 7 9 10 7
11 11 10 10 9 8 9 9 8 6 6 5 5 3 2 1 2 2 3 3 4 6 6 7 7 9 9 7 8 7 7 10 8 9 10 13 15 12 7 8 9 11 8
14 12 11 10 11 12 12 11 11 9 8 6 3 1 2 3 4 4 4 6 6 7 8 9 8 9 9 9 8 9 8 8 9 9 9 9 11 14 12 11 10 11 8
16 14 13 12 10 9 8 8 8 7 6 5 4 4 4 4 4 6 6 6 7 8 9 9 9 8 8 9 9 10 11 10 9 11 10 9 9 13 12 8 13 10 6
15 12 12 11 8 7 7 8 7 7 6 5 5 5 6 6 5 7 8 8 8 9 10 10 10 10 9 8 9 9 11 13 8 9 9 9 10 11 11 15 13 8 7
12 10 10 10 9 8 6 3 4 4 4 5 6 5 7 8 8 7 7 8 9 10 10 11 12 11 10 10 10 9 9 10 9 11 10 8 8 11 11 8 8 8 9
11 10 10 8 8 5 5 1 3 4 6 5 5 6 6 8 9 9 9 9 10 9 10 10 11 12 12 12 10 11 13 13 10 7 11 12 11 11 9 8 8 8 8
9 9 8 6 6 5 4 5 4 5 4 5 6 7 7 8 8 8 9 9 13 14 14 15 13 13 14 17 17 16 16 16 9 10 12 12 12 13 13 12 11 10 10
Wind_Direction
227 225 219 217 215 213 209 206 203 205 196 199 206 220 224 227 238 237 229 235 235 235 240 254 259 247 252 267 271 246 249 265 251 275 284 287 272 267 255 246 241 238 224
223 216 217 217 216 214 209 204 209 206 209 209 214 219 212 232 245 248 233 225 230 231 232 243 256 257 253 266 251 221 238 249 238 251 299 313 300 210 283 225 244 241 237
226 217 209 206 209 213 212 205 204 203 208 213 207 197 214 234 239 232 233 227 225 231 233 238 246 265 268 271 251 247 251 276 253 249 253 299 310 326 29 297 277 239 227
227 228 218 208 206 212 207 209 206 205 205 202 214 216 226 235 243 255 250 238 233 242 234 237 244 253 260 262 266 259 253 250 268 237 239 256 285 304 306 267 292 291 264
224 224 222 220 213 202 206 204 205 204 199 196 206 209 224 238 248 250 263 256 251 249 250 248 246 247 246 250 251 250 238 239 256 251 249 249 251 249 252 288 289 292 276
224 227 221 215 213 203 202 202 199 202 202 202 204 209 218 227 236 239 250 259 264 263 253 253 252 250 250 253 255 243 240 242 242 249 238 242 247 243 235 251 277 281 292
229 226 212 198 200 197 196 197 199 199 200 210 207 217 226 223 224 230 240 249 265 261 262 255 251 252 249 251 249 249 250 255 248 249 241 240 248 240 246 265 274 277 295
222 233 226 206 196 186 190 191 191 181 194 208 213 212 212 216 226 217 228 240 243 262 270 265 257 256 254 252 247 254 261 263 259 259 244 241 241 239 241 248 267 283 281
235 245 240 223 207 182 190 187 179 180 211 213 215 214 218 233 252 251 229 249 258 254 257 255 251 251 248 238 231 253 265 270 271 260 261 251 231 227 244 250 255 255 287
246 248 238 232 207 199 187 183 182 190 229 199 208 213 225 227 235 247 245 251 256 254 252 250 247 249 243 241 240 256 269 276 271 268 252 252 237 230 244 247 240 236 253
135 272 278 220 185 180 182 184 188 207 218 170 203 198 204 203 221 235 247 253 260 249 251 249 241 242 241 243 245 253 271 277 282 258 241 249 251 248 227 236 245 231 213
86 80 119 140 166 174 182 187 199 214 217 223 215 220 199 213 222 226 246 246 259 252 253 247 239 246 248 246 242 255 259 251 272 295 238 263 284 263 247 236 235 234 219
124 126 143 156 161 170 181 190 201 216 217 231 234 226 228 228 235 237 246 266 268 255 245 244 244 242 244 247 245 248 254 244 249 258 255 273 275 274 282 259 244 253 233
172 158 165 174 176 177 180 191 208 225 235 224 236 234 231 232 236 247 274 281 264 262 254 245 246 247 245 243 247 246 250 248 243 248 266 283 275 277 276 267 258 250 247
202 192 179 175 182 178 176 188 209 224 228 241 248 259 283 296 289 288 284 276 274 269 265 264 250 245 248 253 250 253 256 259 254 251 257 257 256 268 264 268 265 266 250
201 206 194 171 172 178 184 200 213 213 212 228 259 276 294 333 318 303 293 284 280 278 272 262 262 262 263 293 231 250 263 271 270 274 275 267 255 264 257 249 246 258 256
196 199 205 188 158 169 174 192 193 176 194 224 238 40 37 40 22 4 355 351 339 328 312 303 299 295 288 281 249 246 266 268 266 266 269 270 263 259 273 251 242 242 235
192 194 186 161 141 139 135 143 147 138 138 130 111 96 91 85 59 42 24 5 348 332 324 325 309 296 296 279 272 259 267 265 264 258 257 251 261 269 275 274 266 275 257
184 180 157 132 126 112 112 115 117 126 127 119 102 89 85 75 63 44 18 356 338 332 330 321 312 305 302 245 256 273 277 271 262 258 249 246 255 273 203 275 276 284 265
152 147 134 130 129 129 129 124 126 127 119 123 125 127 104 32 339 327 310 296 297 297 302 300 300 300 297 280 259 239 271 275 270 259 251 231 247 263 205 258 271 268 254
137 135 140 144 144 150 151 152 159 164 156 153 154 200 264 286 284 291 293 298 299 301 295 296 298 291 290 293 262 249 267 274 281 274 263 254 222 240 246 228 255 254 285
135 143 142 149 153 154 155 151 167 155 162 178 206 224 248 267 291 285 292 285 285 284 288 287 290 290 285 266 266 237 244 274 276 276 278 278 222 247 252 233 245 250 259
139 145 138 131 141 155 169 173 174 179 190 212 233 263 285 288 289 290 293 295 291 294 295 294 294 294 293 290 243 248 247 250 252 272 286 315 288 256 265 250 245 226 237
149 147 147 163 167 178 189 178 164 191 214 250 274 287 295 303 298 294 292 291 291 294 294 295 296 298 295 289 288 286 283 253 247 241 266 287 281 276 268 280 242 236 233
158 159 159 167 173 174 205 163 235 228 246 260 285 295 297 297 298 289 293 292 289 286 292 293 294 294 291 287 287 278 285 286 298 310 283 279 273 262 251 240 244 243 234
164 174 179 142 131 133 216 227 237 239 270 285 291 298 300 295 296 296 296 246 240 267 264 259 257 281 271 279 276 267 264 264 272 278 271 267 266 263 262 260 255 240 229